Weather observations for the past three days for
St. Charles, St. Charles County Smartt Airport
Imperial (Metric)
Date Time (cdt) Wind (mph) Vis. (mi.) Weather Sky Cond. Temperature (ºF) Relative Humidity Wind Chill (°F) Heat Index (°F) Pressure Precipitation (in)
Air Dwpt 6 hour altimeter (in) sea level (mb) 1 hr 3 hr 6 hr
Max. Min.
03 04:54 N 3 10.00 Fair CLR 73.9 71.1 91% 29.96 1013.9
03 03:54 Calm 10.00 Fair CLR 75 72 90% 74 29.96 1013.8
03 02:54 Calm 10.00 Fair CLR 75.9 72 88% 76 29.95 1013.7
03 01:54 Calm 10.00 Fair CLR 77 72 85% 78 29.95 1013.7
03 00:54 Calm 10.00 Fair CLR 75 72 95 75 90% 74 29.96 1013.8
02 23:54 Calm 10.00 Fair CLR 78.1 72 82% 80 29.95 1013.6
02 22:54 NE 3 10.00 Fair CLR 77 72 85% 78 29.95 1013.6
02 21:54 S 3 10.00 Fair CLR 84 70 63% 88 29.95 1013.5
02 20:54 E 5 10.00 Fair CLR 81 73.9 79% 86 29.93 1013.0
02 19:54 Calm 10.00 Fair CLR 88 73 61% 96 29.92 1012.5
02 18:54 Calm 10.00 Fair CLR 95 70 100.9 95 44% 101 29.92 1012.5
02 17:54 SW 7 10.00 Fair CLR 98.1 66.9 36% 103 29.92 1012.4
02 16:54 S 8 10.00 Fair CLR 99 66.9 35% 104 29.92 1012.7
02 15:54 S 12 10.00 Mostly Cloudy FEW070 SCT095 BKN110 100 66 33% 104 29.94 1013.1
02 14:54 SW 7 10.00 A Few Clouds FEW075 99 66.9 35% 104 29.95 1013.7
02 13:54 W 8 10.00 Fair CLR 97 68 39% 102 29.97 1014.4
02 12:54 SW 8 10.00 Fair CLR 96.1 70 96.1 73.9 43% 103 29.99 1014.9
02 11:54 SW 13 10.00 Fair CLR 95 70 44% 101 30.01 1015.6
02 10:54 SW 8 10.00 Fair CLR 93 70 47% 99 30.02 1016.0
02 09:54 SW 8 10.00 Fair CLR 89.1 70 53% 94 30.02 1015.9
02 08:54 SW 6 10.00 Fair CLR 84 70 63% 88 30.03 1016.2
02 07:54 Calm 10.00 Fair CLR 79 73 82% 82 30.03 1016.3
02 06:54 Calm 10.00 Fair CLR 73.9 71.1 77 73 91% 30.02 1015.9
02 05:54 E 3 10.00 Fair CLR 73 70 90% 30.01 1015.5
02 04:54 Calm 10.00 Fair CLR 73.9 71.1 91% 30 1015.2
02 03:54 Calm 10.00 Mostly Cloudy BKN090 75 71.1 88% 75 29.99 1014.9
02 02:54 Calm 10.00 Mostly Cloudy BKN090 75.9 71.1 85% 76 29.98 1014.6
02 01:54 Calm 10.00 Mostly Cloudy BKN095 75 72 90% 74 29.99 1014.9
02 00:54 Calm 10.00 Fair CLR 75 72 93.9 75 90% 74 29.99 1015.0
01 23:54 Calm 10.00 Fair CLR 77 72 85% 78 29.99 1014.9
01 22:54 Calm 10.00 Fair CLR 77 73 88% 78 29.98 1014.7
01 21:54 Calm 10.00 Fair CLR 80.1 73 79% 84 29.98 1014.7
01 20:54 Calm 10.00 Fair CLR 82.9 71.1 67% 88 29.96 1014.1
01 19:54 SE 7 10.00 Fair CLR 86 71.1 61% 92 29.95 1013.6
01 18:54 SW 3 10.00 Fair CLR 95 68 100 95 41% 100 29.95 1013.6
01 17:54 SW 6 10.00 Fair CLR 97 66.9 37% 101 29.95 1013.7
01 16:54 S 7 10.00 Fair CLR 98.1 64.9 34% 101 29.95 1013.7
01 15:54 S 10 10.00 Fair CLR 99 66 34% 103 29.96 1014.0
01 14:54 Vrbl 3 10.00 Fair CLR 98.1 66.9 36% 103 29.98 1014.5
01 13:54 SW 5 10.00 Fair CLR 97 66.9 37% 101 30 1015.2
01 12:54 SW 6 10.00 Fair CLR 95 68 95 69.1 41% 100 30.02 1015.9
01 11:54 NW 6 10.00 Fair CLR 91.9 71.1 51% 99 30.03 1016.4
01 10:54 SW 7 10.00 Fair CLR 89.1 69.1 52% 94 30.05 1016.8
01 09:54 SW 9 10.00 Fair CLR 86 69.1 57% 90 30.04 1016.8
01 08:54 SW 5 10.00 Fair CLR 81 70 69% 84 30.05 1017.0
01 07:54 Calm 10.00 Fair CLR 75 70 84% 75 30.05 1017.0
01 06:54 Calm 10.00 Fair CLR 69.1 66 73.9 69.1 90% 30.03 1016.3
01 05:54 Calm 10.00 Fair CLR 69.1 66 90% 30.02 1015.9
01 04:54 Calm 10.00 Fair CLR 70 68 93% 30.01 1015.7
01 03:54 Calm 10.00 Fair CLR 71.1 68 90% 30 1015.3
01 02:54 Calm 10.00 Fair CLR 72 69.1 91% 29.99 1015.0
01 01:54 Calm 10.00 Fair CLR 72 69.1 91% 29.99 1014.9
01 00:54 Calm 10.00 Fair CLR 72 70 91.9 72 94% 29.99 1015.1
31 22:54 N 3 10.00 Fair CLR 73.9 70 88% 29.99 1015.0
31 21:54 Calm 10.00 Fair CLR 75.9 70 82% 77 29.98 1014.8
31 20:54 E 5 10.00 Fair CLR 78.1 70 76% 80 29.96 1014.1
31 19:54 S 7 10.00 Fair CLR 84.9 69.1 59% 89 29.95 1013.6
31 17:54 SW 12 10.00 Fair CLR 97 66.9 37% 101 29.95 1013.5
31 16:54 S 8 10.00 Fair CLR 98.1 68 38% 103 29.95 1013.5
31 15:54 S 12 10.00 Fair CLR 97 68 39% 102 29.95 1013.7
31 14:54 SW 9 10.00 Fair CLR 97 68 39% 102 29.97 1014.1
31 13:54 SW 8 10.00 Fair CLR 96.1 68 40% 101 29.98 1014.6
31 12:54 S 7 10.00 Fair CLR 93.9 66.9 93.9 66 41% 98 30 1015.4
31 11:54 SW 7 10.00 Fair CLR 91 66 44% 94 30.03 1016.1
31 10:54 S 10 10.00 Fair CLR 88 64 45% 89 30.03 1016.3
31 09:54 SW 8 10.00 Fair CLR 84 64 51% 85 30.03 1016.4
31 08:54 Calm 10.00 Fair CLR 79 64 60% 81 30.03 1016.2
31 07:54 Calm 10.00 Fair CLR 72 66 82% 30.02 1016.1
31 06:54 E 3 10.00 Fair CLR 66 64 70 64.9 93% 30 1015.5
31 05:54 E 3 10.00 Fair CLR 66 63 90% 29.99 1015.2
Date Time (cdt) Wind (mph) Vis. (mi.) Weather Sky Cond. Air Dwpt Max. Min. Relative Humidity Wind Chill (°F) Heat Index (°F) altimeter (in) sea level (mb) 1 hr 3 hr 6 hr
6 hour
Temperature (ºF) Pressure Precipitation (in)